[[{"header":{"parameterUnit":"m.s-1","parameterCategory":2,"la1":30.2992,"la2":30.254,"lo1":-89.0895,"lo2":-89.0443,"dy":0.0025,"dx":0.0025,"nx":19,"ny":19,"refTime":"2026-03-08T03:00:00:Z","depth":"0","parameterNumber":2,"parameterNumberName":"U-component_of_CURRENTS"},"data":[0,0,0,0.1549,0.1551,0.1697,0.1698,0.1844,0.1845,0,0,0,0,0,0,0,0,0,0,0,0.1482,0.1482,0.1548,0.1552,0.1697,0.1698,0.1844,0.1845,0,0,0,0,0,0,0,0,0,0,0,0.1481,0.1482,0.1482,0.1552,0.1697,0.1698,0.1844,0.1746,0,0,0,0,0,0,0,0,0,0,0.1611,0.1551,0.1482,0.1482,0.1553,0.1697,0.1698,0.1742,0.1752,0.1764,0,0.1771,0,0.1815,0.1853,0.1854,0,0,0,0.1561,0.1543,0.1583,0.1483,0.1554,0.1696,0.1634,0.1748,0.1759,0.1778,0.1774,0.1781,0.1817,0.1854,0.1855,0.1943,0.1943,0,0,0.1553,0.1513,0.1575,0.1589,0.1572,0.1629,0.1638,0.1755,0.1757,0.1775,0.1785,0.182,0.1855,0.1856,0.1943,0.1943,0,0,0,0.1523,0.1507,0.1546,0.1582,0.1614,0.1633,0.1644,0.1752,0.1764,0.1787,0.1821,0.1856,0.1857,0.1943,0.1943,0.1921,0,0,0,0.1519,0.149,0.1541,0.152,0.1611,0.1691,0.1637,0.1756,0.1771,0.1821,0.1856,0.1858,0.1943,0.1943,0.1922,0.1922,0,0,0,0.1479,0.1486,0.1497,0.1517,0.1579,0.169,0.1711,0.1761,0.1792,0.1854,0.1859,0.1943,0.1943,0.1922,0.1922,0.1943,0,0,0,0.1443,0.1445,0.1495,0.1505,0.1577,0.1649,0.1711,0.1771,0.1818,0.1856,0.1943,0.1943,0.1922,0.1923,0.1943,0.1905,0.1903,0,0,0.1426,0.1442,0.1447,0.1496,0.1551,0.1631,0.1696,0.1781,0.1826,0.1903,0.1906,0.1921,0.1922,0.1943,0.1913,0.191,0,0,0,0.1429,0.144,0.146,0.1507,0.1568,0.165,0.1738,0.1785,0.1868,0.1856,0.1931,0.1932,0.1946,0.1923,0.1921,0.1876,0.1944,0.1944,0.1944,0.1391,0.1428,0.1445,0.1506,0.1553,0.1671,0.1736,0.1821,0.1853,0.1885,0.1921,0.1931,0.1905,0.1903,0.1857,0.1923,0.1923,0.1923,0.1923,0.1374,0.1383,0.1435,0.1463,0.1548,0.1611,0.175,0.1803,0.1905,0.1917,0.193,0.1908,0.1899,0.1851,0.1921,0.1922,0.1922,0.1922,0.1922,0.1347,0.1354,0.1369,0.1416,0.1483,0.1586,0.1681,0.1796,0.1882,0.1917,0.191,0.191,0.1864,0.1924,0.1924,0.1924,0.1924,0.1924,0.1924,0.1305,0.1323,0.1331,0.1379,0.1406,0.1492,0.1655,0.1732,0.184,0.1896,0.1896,0.1859,0.1932,0.1928,0.1925,0.1925,0.1925,0.1925,0.1925,0.1279,0.1286,0.1292,0.1307,0.1366,0.14,0.1552,0.1684,0.1779,0.1816,0.1821,0.1893,0.1904,0.1905,0.1902,0.1892,0.1892,0.1892,0.1892,0.1257,0.1264,0.1255,0.1262,0.1298,0.1361,0.1411,0.1543,0.1693,0.1736,0.1783,0.1753,0.1756,0.1757,0.1762,0.1755,0.1709,0.1709,0.1709,0.1244,0.1244,0.122,0.1223,0.1251,0.1293,0.1301,0.1368,0.1572,0.1699,0.1728,0.1736,0.169,0.1699,0.17,0.171,0.17,0,0]},{"header":{"parameterUnit":"m.s-1","parameterCategory":2,"la1":30.2992,"la2":30.254,"lo1":-89.0895,"lo2":-89.0443,"dy":0.0025,"dx":0.0025,"nx":19,"ny":19,"refTime":"2026-03-08T03:00:00:Z","depth":"0","parameterNumber":3,"parameterNumberName":"V-component_of_CURRENTS"},"data":[0,0,0,0.0174,0.0173,0.0127,0.0126,0.0048,0.0048,0,0,0,0,0,0,0,0,0,0,0,0.0189,0.0189,0.0174,0.0173,0.0127,0.0126,0.0048,0.0048,0,0,0,0,0,0,0,0,0,0,0,0.0189,0.0189,0.0189,0.0173,0.0127,0.0126,0.0049,0.0085,0,0,0,0,0,0,0,0,0,0,0.0132,0.0154,0.0189,0.0189,0.0173,0.0127,0.0126,0.0087,0.0083,0.0068,0,0.0069,0,0.0062,0.0043,0.0043,0,0,0,0.0161,0.0157,0.0146,0.0189,0.0173,0.0127,0.0144,0.0085,0.008,0.0063,0.0067,0.0065,0.006,0.0043,0.0043,0.0018,0.0018,0,0,0.0163,0.0175,0.015,0.0144,0.017,0.0146,0.0143,0.0082,0.008,0.0067,0.0063,0.0059,0.0042,0.0042,0.0018,0.0018,0,0,0,0.0179,0.0177,0.0168,0.0147,0.0143,0.0145,0.0141,0.0083,0.008,0.0062,0.0058,0.0042,0.0041,0.0018,0.0018,0.0086,0,0,0,0.018,0.0187,0.0169,0.0175,0.0144,0.0115,0.0143,0.0084,0.0077,0.0059,0.0042,0.0041,0.0017,0.0018,0.0084,0.0121,0,0,0,0.0189,0.0188,0.0186,0.0176,0.0162,0.0116,0.0109,0.0082,0.0075,0.0043,0.004,0.0017,0.0018,0.0081,0.0117,0.0158,0,0,0,0.0198,0.0205,0.0187,0.0193,0.0162,0.0152,0.011,0.0095,0.0073,0.0042,0.0017,0.0018,0.0081,0.0115,0.0156,0.0226,0.0244,0,0,0.0213,0.0207,0.0211,0.0194,0.0207,0.0157,0.0161,0.0115,0.0074,0.0033,0.0032,0.0084,0.0117,0.0158,0.0258,0.0276,0,0,0,0.022,0.0228,0.0228,0.0229,0.0212,0.0205,0.0155,0.0134,0.0103,0.0065,0.0077,0.0095,0.0119,0.0155,0.0169,0.0117,0.0021,0.002,0.002,0.0255,0.0252,0.027,0.0266,0.0258,0.0234,0.0226,0.0186,0.0137,0.0137,0.0145,0.0215,0.0254,0.0265,0.0211,0.0133,0.0133,0.0133,0.0133,0.0293,0.0306,0.0306,0.0321,0.0314,0.0312,0.0285,0.0262,0.025,0.0196,0.0215,0.0217,0.0284,0.0221,0.0138,0.0137,0.0136,0.0136,0.0136,0.0318,0.0327,0.0334,0.0361,0.0385,0.0372,0.0418,0.0375,0.0322,0.0338,0.0366,0.0365,0.0315,0.0346,0.0347,0.0347,0.0347,0.0348,0.0348,0.034,0.0351,0.0383,0.0409,0.0439,0.0483,0.0493,0.0503,0.0492,0.0453,0.0453,0.0339,0.028,0.0277,0.0353,0.0352,0.0352,0.0351,0.0351,0.0376,0.0379,0.0434,0.0468,0.0547,0.0638,0.0643,0.0693,0.0674,0.0688,0.0521,0.0509,0.0496,0.0484,0.0486,0.0612,0.0612,0.0612,0.0612,0.04,0.0406,0.0488,0.0558,0.0644,0.0712,0.0848,0.0869,0.0757,0.0683,0.0597,0.0553,0.0545,0.0529,0.0517,0.0517,0.0647,0.0647,0.0647,0.0433,0.0456,0.0522,0.0588,0.0689,0.0808,0.0948,0.1009,0.0817,0.0638,0.0513,0.0512,0.0431,0.0422,0.038,0.0366,0.036,0,0]}],[{"header":{"parameterUnit":"m.s-1","parameterCategory":2,"la1":30.2992,"la2":30.254,"lo1":-89.0895,"lo2":-89.0443,"dy":0.0025,"dx":0.0025,"nx":19,"ny":19,"refTime":"2026-03-08T03:00:00:Z","depth":"2","parameterNumber":2,"parameterNumberName":"U-component_of_CURRENTS"},"data":[0,0,0,0.1402,0.1403,0.1468,0.1469,0.1562,0.1562,0,0,0,0,0,0,0,0,0,0,0,0.1378,0.1378,0.1402,0.1403,0.1468,0.1469,0.1561,0.1562,0,0,0,0,0,0,0,0,0,0,0,0.1378,0.1378,0.1379,0.1403,0.1468,0.1469,0.1561,0.1511,0,0,0,0,0,0,0,0,0,0,0.1446,0.142,0.1378,0.1379,0.1404,0.1468,0.1469,0.1508,0.1514,0.1533,0,0.1541,0,0.1554,0.1568,0.1569,0,0,0,0.1407,0.1415,0.1434,0.1379,0.1404,0.1468,0.144,0.1511,0.1518,0.1541,0.1543,0.1546,0.1555,0.1569,0.157,0.1654,0.1654,0,0,0.1404,0.139,0.143,0.1438,0.1419,0.1438,0.1442,0.1515,0.152,0.1543,0.1548,0.1557,0.157,0.157,0.1654,0.1654,0,0,0,0.1391,0.1388,0.1405,0.1434,0.1445,0.144,0.1444,0.1517,0.1523,0.1549,0.1558,0.157,0.1571,0.1654,0.1654,0.1661,0,0,0,0.1389,0.138,0.1403,0.1396,0.1444,0.148,0.1444,0.1518,0.1527,0.1557,0.157,0.1572,0.1653,0.1654,0.166,0.1674,0,0,0,0.1375,0.1379,0.1386,0.1395,0.1422,0.1479,0.149,0.152,0.1532,0.1569,0.1572,0.1653,0.1654,0.1659,0.1673,0.1698,0,0,0,0.1361,0.1367,0.1385,0.1398,0.1422,0.147,0.1489,0.1534,0.1566,0.1571,0.1653,0.1654,0.1659,0.1672,0.1697,0.1644,0.1645,0,0,0.1359,0.1367,0.1374,0.1392,0.1424,0.1461,0.1508,0.1558,0.1581,0.163,0.1632,0.166,0.1673,0.1697,0.1678,0.1677,0,0,0,0.1367,0.1376,0.1387,0.1413,0.145,0.1494,0.1544,0.1573,0.1627,0.1602,0.167,0.1679,0.1694,0.166,0.166,0.1657,0.1657,0.1657,0.1657,0.1356,0.1376,0.1391,0.1423,0.1458,0.1529,0.1574,0.1625,0.1639,0.1665,0.1691,0.1726,0.1689,0.1689,0.1693,0.1693,0.1693,0.1693,0.1693,0.1349,0.1354,0.139,0.1409,0.1462,0.1511,0.1606,0.1639,0.1716,0.1708,0.1722,0.1677,0.1689,0.1694,0.1694,0.1694,0.1694,0.1694,0.1694,0.1329,0.1333,0.1347,0.1382,0.1434,0.1506,0.1585,0.1666,0.1725,0.176,0.1729,0.1727,0.1734,0.1765,0.1765,0.1766,0.1766,0.1766,0.1766,0.1296,0.1312,0.1319,0.136,0.1384,0.1456,0.1582,0.1643,0.1716,0.1746,0.1745,0.175,0.1748,0.1739,0.1769,0.1768,0.1768,0.1767,0.1767,0.1272,0.128,0.1286,0.1302,0.1354,0.1376,0.1502,0.1595,0.1673,0.1695,0.1738,0.1738,0.1735,0.1734,0.1726,0.175,0.175,0.175,0.175,0.1252,0.1259,0.1253,0.1261,0.1292,0.134,0.1355,0.1429,0.1556,0.1595,0.1601,0.1553,0.1558,0.1543,0.1546,0.1533,0.1507,0.1506,0.1506,0.1238,0.1239,0.1219,0.1225,0.1249,0.1271,0.1237,0.121,0.1321,0.1494,0.1534,0.1738,0.1684,0.1685,0.1674,0.1675,0.1658,0,0]},{"header":{"parameterUnit":"m.s-1","parameterCategory":2,"la1":30.2992,"la2":30.254,"lo1":-89.0895,"lo2":-89.0443,"dy":0.0025,"dx":0.0025,"nx":19,"ny":19,"refTime":"2026-03-08T03:00:00:Z","depth":"2","parameterNumber":3,"parameterNumberName":"V-component_of_CURRENTS"},"data":[0,0,0,0.0016,0.0015,-0.0071,-0.0071,-0.0169,-0.0169,0,0,0,0,0,0,0,0,0,0,0,0.0051,0.0051,0.0016,0.0015,-0.0071,-0.0071,-0.0169,-0.0169,0,0,0,0,0,0,0,0,0,0,0,0.0051,0.0051,0.0051,0.0014,-0.0071,-0.0071,-0.0168,-0.011,0,0,0,0,0,0,0,0,0,0,-0.003,0.0008,0.0051,0.0051,0.0014,-0.007,-0.0071,-0.0107,-0.0114,-0.0123,0,-0.0125,0,-0.0146,-0.0175,-0.0175,0,0,0,0.0002,0.0013,-0.0011,0.0051,0.0013,-0.007,-0.0036,-0.0111,-0.0118,-0.0131,-0.0126,-0.013,-0.0148,-0.0175,-0.0175,-0.0189,-0.0189,0,0,0.0007,0.0032,-0.0006,-0.0015,0.0006,-0.0033,-0.0038,-0.0115,-0.0116,-0.0127,-0.0133,-0.0149,-0.0176,-0.0176,-0.019,-0.0189,0,0,0,0.0029,0.0035,0.0013,-0.001,-0.0025,-0.0035,-0.0041,-0.0112,-0.0119,-0.0134,-0.015,-0.0176,-0.0177,-0.019,-0.019,-0.0104,0,0,0,0.0031,0.0049,0.0016,0.0029,-0.0023,-0.0071,-0.0036,-0.0114,-0.0124,-0.015,-0.0176,-0.0178,-0.0191,-0.019,-0.0107,-0.0065,0,0,0,0.0052,0.0051,0.0045,0.003,-0.0002,-0.007,-0.0083,-0.0117,-0.0133,-0.0175,-0.0178,-0.0191,-0.019,-0.011,-0.0071,-0.0034,0,0,0,0.0073,0.0081,0.0046,0.0054,-0.0001,-0.0023,-0.0083,-0.0111,-0.014,-0.0176,-0.0191,-0.019,-0.0111,-0.0074,-0.0037,0.0008,0.0026,0,0,0.0096,0.0084,0.009,0.0057,0.0061,-0.0013,-0.0009,-0.0075,-0.0128,-0.0168,-0.0169,-0.0106,-0.0071,-0.0035,0.0065,0.0082,0,0,0,0.0106,0.0111,0.0107,0.0099,0.007,0.0052,-0.0018,-0.0042,-0.0082,-0.014,-0.011,-0.0091,-0.007,-0.005,-0.0037,-0.0185,-0.0185,-0.0185,-0.0185,0.0153,0.0143,0.0161,0.0146,0.0134,0.0093,0.0079,0.0031,-0.0028,-0.0027,-0.0024,0.0059,0.0082,0.0093,-0.0031,-0.003,-0.003,-0.003,-0.0029,0.0194,0.0206,0.0202,0.0213,0.02,0.0196,0.0162,0.013,0.0114,0.0053,0.0069,0.0036,0.0113,-0.0023,-0.0024,-0.0025,-0.0026,-0.0026,-0.0027,0.0221,0.023,0.0234,0.0259,0.0282,0.0264,0.0304,0.0257,0.0197,0.0211,0.0207,0.0205,0.0111,0.0213,0.0213,0.0213,0.0214,0.0214,0.0214,0.0246,0.0256,0.0287,0.0311,0.0339,0.0378,0.0382,0.0384,0.0356,0.0308,0.0307,0.0141,0.0133,0.0124,0.022,0.0219,0.0218,0.0218,0.0217,0.028,0.0285,0.0335,0.0367,0.0442,0.0516,0.0519,0.0542,0.0521,0.0519,0.0355,0.035,0.0324,0.0312,0.0308,0.0445,0.0445,0.0445,0.0445,0.0305,0.031,0.0383,0.0447,0.0527,0.0581,0.0674,0.0662,0.0581,0.0512,0.0509,0.0466,0.0456,0.0433,0.0418,0.0413,0.0578,0.0578,0.0578,0.0334,0.0353,0.041,0.047,0.0564,0.0656,0.0738,0.0724,0.061,0.0581,0.0501,0.046,0.0386,0.0374,0.0324,0.0306,0.0292,0,0]}],[{"header":{"parameterUnit":"m.s-1","parameterCategory":2,"la1":30.2992,"la2":30.254,"lo1":-89.0895,"lo2":-89.0443,"dy":0.0025,"dx":0.0025,"nx":19,"ny":19,"refTime":"2026-03-08T03:00:00:Z","depth":"4","parameterNumber":2,"parameterNumberName":"U-component_of_CURRENTS"},"data":[0,0,0,0.0924,0.0926,0.0977,0.0977,0.1028,0.1029,0,0,0,0,0,0,0,0,0,0,0,0.0916,0.0917,0.0924,0.0926,0.0977,0.0977,0.1028,0.1029,0,0,0,0,0,0,0,0,0,0,0,0.0916,0.0917,0.0918,0.0926,0.0977,0.0977,0.1028,0.0992,0,0,0,0,0,0,0,0,0,0,0.0944,0.0947,0.0917,0.0918,0.0926,0.0977,0.0977,0.0991,0.0995,0.1002,0,0.1021,0,0.1023,0.1032,0.1032,0,0,0,0.0924,0.0944,0.095,0.0918,0.0927,0.0977,0.0953,0.0993,0.0997,0.1007,0.1022,0.1024,0.1024,0.1032,0.1032,0.11,0.11,0,0,0.0921,0.0931,0.0947,0.0953,0.0955,0.0951,0.0955,0.0996,0.1011,0.1022,0.1025,0.1025,0.1033,0.1033,0.1099,0.11,0,0,0,0.0914,0.0929,0.0934,0.0951,0.096,0.0953,0.0957,0.101,0.101,0.1025,0.1025,0.1033,0.1033,0.1099,0.11,0.1129,0,0,0,0.0912,0.0925,0.0933,0.094,0.0959,0.0989,0.097,0.1007,0.1011,0.1025,0.1033,0.1034,0.1099,0.1099,0.1128,0.1144,0,0,0,0.0911,0.0925,0.0933,0.094,0.0961,0.0988,0.0991,0.1008,0.1011,0.1032,0.1034,0.1098,0.1099,0.1126,0.1142,0.117,0,0,0,0.0914,0.0933,0.0934,0.0961,0.0961,0.0986,0.0991,0.1022,0.1042,0.1033,0.1099,0.1099,0.1126,0.114,0.1169,0.1022,0,0,0,0.0932,0.0936,0.0949,0.095,0.0975,0.0978,0.1014,0.1046,0.1057,0.1083,0.1084,0.1128,0.1142,0.117,0.1075,0,0,0,0,0.0949,0.0961,0.0969,0.099,0.1003,0.1028,0.105,0.1066,0.1109,0.1073,0.1138,0.1145,0.1162,0.1072,0.1104,0.1104,0.1104,0.1103,0.1103,0.0973,0.0979,0.0999,0.1012,0.1037,0.1069,0.1096,0.1124,0.1128,0.1158,0.1177,0.1229,0.1134,0.1182,0.1182,0.1183,0.1183,0.1183,0.1183,0.0979,0.098,0.1013,0.1036,0.1068,0.1106,0.1153,0.1172,0.1223,0.1212,0.1227,0.1118,0.1186,0.1185,0.1185,0.1185,0.1184,0.1184,0.1184,0.0965,0.0966,0.0995,0.1036,0.1089,0.1136,0.1185,0.1229,0.1261,0.1283,0.1195,0.1255,0.1245,0.1299,0.1299,0.1299,0.1299,0.13,0.13,0.0928,0.0955,0.0982,0.1035,0.1069,0.1132,0.1213,0.1241,0.1285,0.1221,0.1303,0.1268,0.1264,0.1253,0.1303,0.1302,0.1302,0.1302,0.1301,0.0891,0.092,0.0947,0.0981,0.1047,0.1073,0.1175,0.1191,0.1211,0.1194,0.1182,0.1187,0.1164,0.1163,0.1147,0.1168,0.1166,0.1165,0,0.0866,0.0882,0.0912,0.094,0.0963,0.103,0.1019,0.1069,0.1105,0.1061,0.122,0.1206,0.1208,0.1182,0.1178,0.1158,0,0,0,0.0844,0.0858,0.0861,0.0896,0.091,0.0933,0.1007,0.0986,0.1094,0.108,0.1122,0.1133,0.1253,0.1313,0.1291,0.1286,0.1267,0,0]},{"header":{"parameterUnit":"m.s-1","parameterCategory":2,"la1":30.2992,"la2":30.254,"lo1":-89.0895,"lo2":-89.0443,"dy":0.0025,"dx":0.0025,"nx":19,"ny":19,"refTime":"2026-03-08T03:00:00:Z","depth":"4","parameterNumber":3,"parameterNumberName":"V-component_of_CURRENTS"},"data":[0,0,0,0.0046,0.0045,-0.0014,-0.0014,-0.0068,-0.0068,0,0,0,0,0,0,0,0,0,0,0,0.0071,0.0071,0.0047,0.0045,-0.0014,-0.0014,-0.0068,-0.0068,0,0,0,0,0,0,0,0,0,0,0,0.0071,0.0071,0.0071,0.0045,-0.0014,-0.0014,-0.0068,-0.0031,0,0,0,0,0,0,0,0,0,0,0.0023,0.0048,0.0071,0.0071,0.0045,-0.0014,-0.0014,-0.0029,-0.0033,-0.0032,0,-0.0034,0,-0.005,-0.0071,-0.0071,0,0,0,0.0037,0.0051,0.0034,0.0071,0.0045,-0.0013,0.001,-0.0032,-0.0036,-0.0037,-0.0035,-0.0037,-0.0051,-0.0071,-0.0071,-0.0052,-0.0052,0,0,0.004,0.0058,0.0037,0.0032,0.004,0.0012,0.0009,-0.0035,-0.0033,-0.0035,-0.0039,-0.0051,-0.0071,-0.0072,-0.0053,-0.0052,0,0,0,0.0055,0.0061,0.0044,0.0034,0.0023,0.0011,0.0007,-0.0032,-0.0037,-0.0039,-0.0052,-0.0071,-0.0072,-0.0053,-0.0052,0.0005,0,0,0,0.0057,0.007,0.0046,0.0056,0.0024,-0.0007,0.0011,-0.0034,-0.004,-0.0052,-0.0071,-0.0072,-0.0054,-0.0053,0.0002,0.0034,0,0,0,0.0072,0.0072,0.0068,0.0057,0.0035,-0.0007,-0.0016,-0.0036,-0.0047,-0.0071,-0.0072,-0.0054,-0.0053,0.0,0.0029,0.0054,0,0,0,0.0088,0.0094,0.0069,0.0076,0.0036,0.0028,-0.0016,-0.0031,-0.0047,-0.0072,-0.0054,-0.0053,-0.0001,0.0027,0.0051,0.005,0,0,0,0.0106,0.0097,0.0103,0.0078,0.0088,0.0035,0.0049,0.0004,-0.0029,-0.0041,-0.0041,0.0003,0.0029,0.0053,0.0115,0,0,0,0,0.0115,0.0119,0.0119,0.0117,0.0101,0.0095,0.0049,0.0036,0.0018,-0.0033,0.001,0.0024,0.0038,0.003,-0.0047,-0.0047,-0.0047,-0.0047,-0.0048,0.0151,0.0146,0.0165,0.0158,0.0156,0.0136,0.0132,0.0107,0.0065,0.0071,0.0076,0.0141,0.0137,0.0077,0.0078,0.0078,0.0078,0.0078,0.0078,0.0184,0.0196,0.0199,0.0213,0.0213,0.022,0.0209,0.0186,0.0183,0.014,0.0149,0.0097,0.0084,0.0083,0.0082,0.0082,0.0081,0.0081,0.008,0.0204,0.0212,0.0221,0.025,0.0279,0.0276,0.0313,0.0287,0.0244,0.0253,0.0226,0.0181,0.017,0.025,0.025,0.025,0.0251,0.0251,0.0251,0.022,0.0232,0.0262,0.0292,0.0321,0.0358,0.0372,0.037,0.033,0.03,0.0267,0.0199,0.0193,0.018,0.0255,0.0254,0.0254,0.0253,0.0253,0.024,0.0249,0.0294,0.0326,0.0396,0.0425,0.0443,0.0428,0.0425,0.0398,0.0319,0.0314,0.0292,0.0284,0.0272,0.0377,0.0378,0.0378,0,0.0255,0.0263,0.0324,0.038,0.0441,0.0466,0.0484,0.0476,0.0419,0.0408,0.0411,0.0321,0.0317,0.029,0.0283,0.0271,0,0,0,0.0273,0.029,0.0332,0.0387,0.0457,0.0476,0.0488,0.0475,0.0428,0.0426,0.0385,0.0383,0.0324,0.0267,0.0221,0.0214,0.0191,0,0]}]]